ROMMA est une association bénévole à but non lucratif. Votre soutien est indispensable : ADHERER à ROMMA ou FAIRE un DON

Briord - (01, Ain)

Bugey (281 m)   Longitude: 05° 29' 13" E   Latitude: 45° 46' 37" N Station partenaire n°15
 

Détail journalier du     <<     >>

Température Precipitation Humidité Pression Vent Dir Rafale Dir. rafale Ensol.
Heure (°C) (mm) (%) (hPa) (km/h) (km/h) (min)
01:00 19.807010161---16ESE0
02:00 18.707410161---16E0
03:00 17.3079101602SE0
04:00 16.8082101603SE0
05:00 16.5082101700---0
06:00 17.2081101603NE0
07:00 17.4080101600---0
08:00 18.0083101603SE0
09:00 19.5082101700---20
10:00 22.7073101700---60
11:00 24.806810171---6SSE25
12:00 26.406610172O10O30
13:00 26.806010173ONO11O35
14:00 27.605410162SO6O5
15:00 28.404710161---6SSO0
16:00 28.705310161---6SSE0
17:00 28.105310151SSE8S0
18:00 28.405510151---6SSE10
19:00 26.7069101505SE0
20:00 23.9073101500---0
21:00 21.5077101605ESE0
22:00 21.2081101703SE0
23:00 23.207110173ESE19E0
minuit 21.6083101708SSE0

Graphique du 27-08-2019

 

Serveur OMMA